• Em Portugal
  • Lista de países
  • Para 7 dias
  • Temperatura da água
  • Mapas de satélite
  • Mapa do tempo
  • Widgets de tempo
  • user-avatar
    Iniciar Sessão

    Previsão horária em Hondogi

    Hoje, 24 Setembro, Segunda-feira

    Tempo Temperatura Precipitação Vento Pressão Humidade
    00:00 +8°C° 0 mm 3 m/s 740 mmHg 90%
    01:00 +8°C° 0 mm 3 m/s 739 mmHg 91%
    02:00 +7°C° 0 mm 2 m/s 738 mmHg 93%
    03:00 +8°C° 0.5 mm 2 m/s 738 mmHg 93%
    04:00 +8°C° 0.5 mm 3 m/s 738 mmHg 93%
    05:00 +7°C° 0.5 mm 4 m/s 737 mmHg 94%
    06:00 +7°C° 1.7 mm 4 m/s 736 mmHg 94%
    07:00 +7°C° 1.7 mm 5 m/s 735 mmHg 94%
    08:00 +7°C° 0 mm 5 m/s 735 mmHg 94%
    09:00 +7°C° 2.9 mm 6 m/s 733 mmHg 93%
    10:00 +7°C° 2.9 mm 6 m/s 732 mmHg 93%
    11:00 +6°C° 2.9 mm 7 m/s 731 mmHg 93%
    12:00 +8°C° 2.9 mm 7 m/s 730 mmHg 93%
    13:00 +8°C° 2.9 mm 6 m/s 730 mmHg 94%
    14:00 +8°C° 0 mm 5 m/s 729 mmHg 95%
    15:00 +8°C° 1.5 mm 6 m/s 729 mmHg 94%
    16:00 +6°C° 1.5 mm 7 m/s 730 mmHg 93%
    17:00 +6°C° 1.5 mm 9 m/s 730 mmHg 91%
    18:00 +6°C° 0.3 mm 8 m/s 731 mmHg 91%
    19:00 +6°C° 0.3 mm 8 m/s 731 mmHg 90%
    20:00 +5°C° 0.3 mm 8 m/s 732 mmHg 90%
    21:00 +5°C° 0.1 mm 7 m/s 733 mmHg 90%
    22:00 +5°C° 0.1 mm 7 m/s 734 mmHg 91%
    23:00 +5°C° 0.1 mm 6 m/s 734 mmHg 91%

    Amanhã, 25 Setembro, Terça-feira

    Tempo Temperatura Precipitação Vento Pressão Humidade
    00:00 +5°C° 0.1 mm 6 m/s 735 mmHg 91%
    01:00 +5°C° 0.1 mm 6 m/s 736 mmHg 90%
    02:00 +5°C° 0.1 mm 6 m/s 737 mmHg 90%
    03:00 +5°C° 0 mm 6 m/s 737 mmHg 90%
    04:00 +4°C° 0 mm 6 m/s 738 mmHg 91%
    05:00 +3°C° 0 mm 6 m/s 739 mmHg 91%
    06:00 +3°C° 0 mm 6 m/s 739 mmHg 90%
    07:00 +3°C° 0 mm 6 m/s 740 mmHg 90%
    08:00 +3°C° 0 mm 7 m/s 740 mmHg 89%
    09:00 +4°C° 0 mm 7 m/s 741 mmHg 87%
    10:00 +4°C° 0 mm 7 m/s 742 mmHg 86%
    11:00 +4°C° 0 mm 6 m/s 742 mmHg 85%
    12:00 +5°C° 0 mm 6 m/s 743 mmHg 81%
    13:00 +5°C° 0 mm 6 m/s 743 mmHg 77%
    14:00 +7°C° 0 mm 6 m/s 744 mmHg 73%
    15:00 +7°C° 0 mm 6 m/s 744 mmHg 73%
    16:00 +6°C° 0 mm 5 m/s 745 mmHg 73%
    17:00 +6°C° 0 mm 5 m/s 745 mmHg 74%
    18:00 +5°C° 0 mm 5 m/s 746 mmHg 75%
    19:00 +5°C° 0 mm 5 m/s 747 mmHg 76%
    20:00 +3°C° 0 mm 5 m/s 747 mmHg 77%
    21:00 +2°C° 0 mm 5 m/s 748 mmHg 77%
    22:00 +2°C° 0 mm 5 m/s 749 mmHg 77%
    23:00 +1°C° 0 mm 5 m/s 749 mmHg 76%

    Depois de amanhã, 26 Setembro, Quarta-feira

    Tempo Temperatura Precipitação Vento Pressão Humidade
    00:00 +1°C° 0 mm 4 m/s 750 mmHg 77%
    01:00 +1°C° 0 mm 4 m/s 751 mmHg 77%
    02:00 0°C° 0 mm 4 m/s 751 mmHg 78%
    03:00 0°C° 0 mm 4 m/s 752 mmHg 79%
    04:00 -1°C° 0 mm 4 m/s 752 mmHg 81%
    05:00 -1°C° 0 mm 4 m/s 752 mmHg 82%
    06:00 0°C° 0 mm 4 m/s 753 mmHg 82%
    07:00 +1°C° 0 mm 4 m/s 753 mmHg 82%
    08:00 +3°C° 0 mm 4 m/s 754 mmHg 81%
    09:00 +5°C° 0 mm 4 m/s 754 mmHg 75%
    10:00 +6°C° 0 mm 4 m/s 754 mmHg 69%
    11:00 +8°C° 0 mm 5 m/s 754 mmHg 63%
    12:00 +9°C° 0 mm 5 m/s 753 mmHg 60%
    13:00 +9°C° 0 mm 5 m/s 753 mmHg 57%
    14:00 +10°C° 0 mm 5 m/s 752 mmHg 53%
    15:00 +9°C° 0 mm 5 m/s 751 mmHg 57%
    16:00 +9°C° 0 mm 5 m/s 751 mmHg 61%
    17:00 +8°C° 0 mm 4 m/s 750 mmHg 65%
    18:00 +7°C° 0.1 mm 5 m/s 750 mmHg 66%
    19:00 +7°C° 0.1 mm 6 m/s 749 mmHg 68%
    20:00 +7°C° 0.1 mm 6 m/s 749 mmHg 70%
    21:00 +5°C° 0.6 mm 7 m/s 748 mmHg 75%
    22:00 +5°C° 0.6 mm 8 m/s 747 mmHg 80%
    23:00 +5°C° 0.6 mm 8 m/s 746 mmHg 85%

    27 Setembro, Quinta-feira

    Tempo Temperatura Precipitação Vento Pressão Humidade
    00:00 +5°C° 1.4 mm 9 m/s 745 mmHg 87%
    01:00 +5°C° 1.4 mm 9 m/s 744 mmHg 88%
    02:00 +5°C° 1.4 mm 9 m/s 743 mmHg 89%
    03:00 +5°C° 1 mm 9 m/s 742 mmHg 90%
    04:00 +5°C° 1 mm 9 m/s 741 mmHg 90%
    05:00 +6°C° 1 mm 9 m/s 741 mmHg 90%
    06:00 +6°C° 0.5 mm 8 m/s 741 mmHg 91%
    07:00 +7°C° 0.5 mm 8 m/s 741 mmHg 91%
    08:00 +8°C° 0.5 mm 7 m/s 740 mmHg 91%
    09:00 +9°C° 0.3 mm 7 m/s 741 mmHg 89%
    10:00 +9°C° 0.3 mm 6 m/s 741 mmHg 87%
    11:00 +10°C° 0.3 mm 6 m/s 741 mmHg 85%
    12:00 +11°C° 0.1 mm 6 m/s 742 mmHg 78%
    13:00 +13°C° 0.1 mm 6 m/s 742 mmHg 72%
    14:00 +14°C° 0.1 mm 6 m/s 742 mmHg 66%
    15:00 +13°C° 0 mm 5 m/s 742 mmHg 68%
    16:00 +12°C° 0 mm 4 m/s 742 mmHg 71%
    17:00 +12°C° 0 mm 4 m/s 742 mmHg 74%
    18:00 +10°C° 0 mm 3 m/s 742 mmHg 76%
    19:00 +9°C° 0 mm 3 m/s 743 mmHg 79%
    20:00 +8°C° 0 mm 3 m/s 743 mmHg 82%
    21:00 +8°C° 0 mm 3 m/s 743 mmHg 84%
    22:00 +8°C° 0 mm 3 m/s 743 mmHg 87%
    23:00 +7°C° 0 mm 3 m/s 743 mmHg 89%

    28 Setembro, Sexta-feira

    Tempo Temperatura Precipitação Vento Pressão Humidade
    00:00 +7°C° 0 mm 3 m/s 743 mmHg 91%
    01:00 +6°C° 0 mm 4 m/s 743 mmHg 92%
    02:00 +7°C° 0 mm 4 m/s 742 mmHg 94%
    03:00 +8°C° 0 mm 5 m/s 741 mmHg 93%
    04:00 +9°C° 0 mm 7 m/s 740 mmHg 92%
    05:00 +10°C° 0 mm 8 m/s 739 mmHg 91%
    06:00 +11°C° 0 mm 8 m/s 739 mmHg 89%
    07:00 +11°C° 0 mm 9 m/s 738 mmHg 86%
    08:00 +12°C° 0 mm 9 m/s 737 mmHg 84%
    09:00 +12°C° 0.2 mm 10 m/s 737 mmHg 83%
    10:00 +13°C° 0.2 mm 10 m/s 737 mmHg 82%
    11:00 +13°C° 0.2 mm 10 m/s 737 mmHg 81%
    12:00 +13°C° 0.4 mm 10 m/s 738 mmHg 77%
    13:00 +12°C° 0.4 mm 10 m/s 739 mmHg 74%
    14:00 +12°C° 0.4 mm 9 m/s 739 mmHg 70%
    15:00 +11°C° 0 mm 8 m/s 740 mmHg 72%
    16:00 +9°C° 0 mm 6 m/s 741 mmHg 74%
    17:00 +7°C° 0 mm 5 m/s 742 mmHg 77%
    18:00 +6°C° 0 mm 4 m/s 743 mmHg 80%
    19:00 +5°C° 0 mm 3 m/s 744 mmHg 84%
    20:00 +5°C° 0 mm 2 m/s 745 mmHg 88%
    21:00 +5°C° 0 mm 2 m/s 745 mmHg 88%
    22:00 +4°C° 0 mm 2 m/s 745 mmHg 89%
    23:00 +5°C° 0 mm 1 m/s 746 mmHg 90%

    29 Setembro, Sábado

    Tempo Temperatura Precipitação Vento Pressão Humidade
    00:00 +5°C° 0 mm 1 m/s 746 mmHg 91%
    01:00 +5°C° 0 mm 1 m/s 746 mmHg 91%
    02:00 +4°C° 0 mm 1 m/s 746 mmHg 92%
    03:00 +4°C° 0 mm 1 m/s 746 mmHg 92%
    04:00 +3°C° 0 mm 2 m/s 746 mmHg 91%
    05:00 +4°C° 0 mm 2 m/s 746 mmHg 91%
    06:00 +4°C° 0 mm 2 m/s 746 mmHg 89%
    07:00 +5°C° 0 mm 2 m/s 746 mmHg 86%
    08:00 +6°C° 0 mm 2 m/s 747 mmHg 83%
    09:00 +7°C° 0 mm 2 m/s 747 mmHg 80%
    10:00 +8°C° 0 mm 2 m/s 747 mmHg 76%
    11:00 +9°C° 0 mm 2 m/s 748 mmHg 73%
    12:00 +9°C° 0.1 mm 2 m/s 748 mmHg 71%
    13:00 +10°C° 0.1 mm 2 m/s 748 mmHg 69%
    14:00 +10°C° 0.1 mm 3 m/s 748 mmHg 67%
    15:00 +9°C° 0.1 mm 2 m/s 748 mmHg 70%
    16:00 +8°C° 0.1 mm 2 m/s 748 mmHg 74%
    17:00 +8°C° 0.1 mm 2 m/s 749 mmHg 77%
    18:00 +6°C° 0 mm 2 m/s 749 mmHg 78%
    19:00 +5°C° 0 mm 2 m/s 749 mmHg 80%
    20:00 +4°C° 0 mm 2 m/s 750 mmHg 82%
    21:00 +3°C° 0 mm 2 m/s 750 mmHg 81%
    22:00 +3°C° 0 mm 2 m/s 750 mmHg 80%
    23:00 +2°C° 0 mm 2 m/s 751 mmHg 79%
    Mostrar mais